Hourly Data Report for July 25, 2021

CARBERRY CS
MANITOBA
Current Station Operator: ECCC - MSC

49°54'20.900" N
99°21'26.800" W
383.50 m
5010547
71170
WZE

Download Data

Hourly Data (July 2021)
Hourly Data Report for July 25, 2021
TIME
LST
Temp Definition
°C
Dew Point Definition
°C
Rel Hum Definition
%
Precip. Amount Definition
mm

Wind Dir Definition
10's deg

Wind Spd Definition
km/h
Visibility Definition
km
Stn Press Definition
kPa
Hmdx Definition


Wind Chill Definition


Weather Definition


00:00 14.6 9.2 70 0.0 26 13   96.73     LegendNANA
01:00 15.0 9.2 68 0.0 25 13   96.74     LegendNANA
02:00 13.8 9.4 74 0.0 25 13   96.75     LegendNANA
03:00 13.5 9.2 75 0.0 26 13   96.77     LegendNANA
04:00 11.5 9.1 85 0.0 27 10   96.79     LegendNANA
05:00 11.4 9.8 89 0.0 26 13   96.82     LegendNANA
06:00 12.9 9.6 80 0.0 26 14   96.85     LegendNANA
07:00 15.7 10.6 72 0.0 27 12   96.85     LegendNANA
08:00 19.1 11.5 61 0.0 28 12   96.86     LegendNANA
09:00 22.7 12.1 51 0.0 27 13   96.88 25   LegendNANA
10:00 24.9 12.2 45 0.0 29 15   96.89 27   LegendNANA
11:00 26.1 10.8 38 0.0 28 21   96.89 28   LegendNANA
12:00 26.9 10.1 35 0.0 29 19   96.86 28   LegendNANA
13:00 27.5 10.9 35 0.0 30 19   96.84 29   LegendNANA
14:00 27.5 8.1 29 0.0 29 21   96.85 28   LegendNANA
15:00 27.9 9.4 31 0.0 30 21   96.82 29   LegendNANA
16:00 27.8 9.2 31 0.0 30 19   96.80 29   LegendNANA
17:00 27.3 10.7 35 0.0 29 13   96.76 29   LegendNANA
18:00 26.5 10.1 36 0.0 31 14   96.76 28   LegendNANA
19:00 24.9 11.9 44 0.0 33 7   96.77 27   LegendNANA
20:00 21.8 13.6 60 0.0 34 2   96.74 25   LegendNANA
21:00 18.2 13.6 75 0.0 25 2   96.77     LegendNANA
22:00 16.1 12.3 78 0.0 25 2   96.83     LegendNANA
23:00 16.1 14.3 89 0.0 26 2   96.77     LegendNANA

Notes on Data Quality.

Legend

  • E = Estimated
  • M = Missing
  • NA = Not Available*
  • [empty] = Indicates an unobserved value
Date modified: